TimePST,TemperatureF,Dew PointF,Humidity,Sea Level PressureIn,VisibilityMPH,Wind Direction,Wind SpeedMPH,Gust SpeedMPH,PrecipitationIn,Events,Conditions,WindDirDegrees,DateUTC
12:15 AM,53.6,17.6,24,29.96,10.0,North,12.7,-,N/A,,Unknown,10,2013-02-18 08:15:00
12:35 AM,53.6,17.6,24,29.96,10.0,North,11.5,-,N/A,,Unknown,10,2013-02-18 08:35:00
12:55 AM,53.6,19.4,26,29.97,10.0,NNE,15.0,-,N/A,,Unknown,20,2013-02-18 08:55:00
1:15 AM,53.6,19.4,26,29.97,10.0,North,15.0,-,N/A,,Unknown,360,2013-02-18 09:15:00
1:35 AM,53.6,19.4,26,29.97,10.0,North,17.3,20.7,N/A,,Unknown,10,2013-02-18 09:35:00
1:55 AM,53.6,19.4,26,29.98,10.0,NNW,6.9,-,N/A,,Unknown,340,2013-02-18 09:55:00
2:15 AM,50.0,19.4,30,30.00,10.0,Calm,Calm,-,N/A,,Unknown,0,2013-02-18 10:15:00
2:35 AM,48.2,19.4,32,30.01,10.0,Calm,Calm,-,N/A,,Unknown,0,2013-02-18 10:35:00
2:55 AM,48.2,21.2,34,30.01,10.0,Calm,Calm,-,N/A,,Unknown,0,2013-02-18 10:55:00
3:15 AM,48.2,23.0,37,30.01,10.0,NE,6.9,-,N/A,,Unknown,40,2013-02-18 11:15:00
3:35 AM,44.6,23.0,43,30.02,10.0,NNW,5.8,-,N/A,,Unknown,340,2013-02-18 11:35:00
4:55 AM,44.6,19.4,37,30.03,10.0,NW,6.9,-,N/A,,Unknown,320,2013-02-18 12:55:00
5:15 AM,44.6,19.4,37,30.03,10.0,North,9.2,-,N/A,,Unknown,360,2013-02-18 13:15:00
5:35 AM,44.6,19.4,37,30.04,10.0,North,9.2,-,N/A,,Unknown,360,2013-02-18 13:35:00
5:55 AM,44.6,19.4,37,30.05,10.0,NNW,9.2,-,N/A,,Unknown,340,2013-02-18 13:55:00
6:35 AM,44.6,19.4,37,30.07,10.0,North,8.1,-,N/A,,Unknown,360,2013-02-18 14:35:00
6:55 AM,46.4,17.6,32,30.07,10.0,NNE,9.2,-,N/A,,Unknown,30,2013-02-18 14:55:00
7:15 AM,48.2,17.6,30,30.08,10.0,NNE,3.5,-,N/A,,Unknown,20,2013-02-18 15:15:00
7:35 AM,46.4,17.6,32,30.09,10.0,Calm,Calm,-,N/A,,Unknown,0,2013-02-18 15:35:00
7:55 AM,48.2,17.6,30,30.09,10.0,Calm,Calm,-,N/A,,Unknown,0,2013-02-18 15:55:00
8:15 AM,46.4,21.2,37,30.10,10.0,Calm,Calm,-,N/A,,Unknown,0,2013-02-18 16:15:00
8:35 AM,48.2,19.4,32,30.10,10.0,Calm,Calm,-,N/A,,Unknown,0,2013-02-18 16:35:00
8:55 AM,50.0,17.6,28,30.10,10.0,ENE,8.1,-,N/A,,Unknown,60,2013-02-18 16:55:00
9:15 AM,51.8,17.6,26,30.09,10.0,NNE,9.2,-,N/A,,Unknown,30,2013-02-18 17:15:00
9:35 AM,53.6,17.6,24,30.09,10.0,NNE,10.4,-,N/A,,Unknown,30,2013-02-18 17:35:00
9:55 AM,53.6,19.4,26,30.10,10.0,NNE,6.9,-,N/A,,Unknown,30,2013-02-18 17:55:00
10:15 AM,53.6,17.6,24,30.10,10.0,NNE,5.8,-,N/A,,Unknown,30,2013-02-18 18:15:00
10:35 AM,55.4,17.6,23,30.10,10.0,NE,6.9,-,N/A,,Unknown,40,2013-02-18 18:35:00
10:55 AM,55.4,15.8,21,30.09,10.0,NNE,9.2,-,N/A,,Unknown,30,2013-02-18 18:55:00
11:15 AM,57.2,15.8,20,30.08,10.0,NE,8.1,-,N/A,,Unknown,40,2013-02-18 19:15:00
11:35 AM,57.2,15.8,20,30.06,10.0,NE,5.8,-,N/A,,Unknown,40,2013-02-18 19:35:00
11:55 AM,57.2,14.0,18,30.05,10.0,NE,6.9,-,N/A,,Unknown,40,2013-02-18 19:55:00
12:15 PM,57.2,14.0,18,30.03,10.0,ENE,8.1,-,N/A,,Unknown,70,2013-02-18 20:15:00
12:35 PM,59.0,14.0,17,30.02,10.0,NE,6.9,-,N/A,,Unknown,40,2013-02-18 20:35:00
12:55 PM,59.0,14.0,17,30.01,10.0,NE,6.9,-,N/A,,Unknown,40,2013-02-18 20:55:00
1:15 PM,59.0,14.0,17,30.00,10.0,ENE,4.6,-,N/A,,Unknown,60,2013-02-18 21:15:00
1:35 PM,59.0,14.0,17,29.99,10.0,ENE,4.6,-,N/A,,Unknown,60,2013-02-18 21:35:00
1:55 PM,59.0,14.0,17,29.98,10.0,Calm,Calm,-,N/A,,Unknown,0,2013-02-18 21:55:00
2:15 PM,59.0,14.0,17,29.97,10.0,Calm,Calm,-,N/A,,Unknown,0,2013-02-18 22:15:00
2:35 PM,60.8,14.0,16,29.96,10.0,East,5.8,-,N/A,,Unknown,80,2013-02-18 22:35:00
2:55 PM,60.8,14.0,16,29.95,10.0,Calm,Calm,-,N/A,,Unknown,0,2013-02-18 22:55:00
3:15 PM,60.8,14.0,16,29.94,10.0,Calm,Calm,-,N/A,,Unknown,0,2013-02-18 23:15:00
3:35 PM,60.8,15.8,17,29.93,10.0,Calm,Calm,-,N/A,,Unknown,0,2013-02-18 23:35:00
3:55 PM,62.6,15.8,16,29.93,10.0,NE,4.6,-,N/A,,Unknown,50,2013-02-18 23:55:00
4:15 PM,62.6,15.8,16,29.92,10.0,NNE,6.9,-,N/A,,Unknown,20,2013-02-19 00:15:00
4:55 PM,59.0,17.6,20,29.90,10.0,NE,6.9,-,N/A,,Unknown,40,2013-02-19 00:55:00
5:15 PM,57.2,17.6,21,29.90,10.0,NE,5.8,-,N/A,,Unknown,50,2013-02-19 01:15:00
5:35 PM,55.4,17.6,23,29.90,10.0,NNE,8.1,-,N/A,,Unknown,30,2013-02-19 01:35:00
5:55 PM,55.4,17.6,23,29.90,10.0,NE,8.1,-,N/A,,Unknown,50,2013-02-19 01:55:00
6:15 PM,55.4,17.6,23,29.90,10.0,NE,6.9,-,N/A,,Unknown,50,2013-02-19 02:15:00
6:35 PM,53.6,21.2,28,29.90,10.0,ENE,6.9,-,N/A,,Unknown,60,2013-02-19 02:35:00
6:55 PM,51.8,21.2,30,29.90,10.0,ENE,6.9,-,N/A,,Unknown,60,2013-02-19 02:55:00
7:15 PM,55.4,17.6,23,29.89,10.0,East,6.9,-,N/A,,Unknown,80,2013-02-19 03:15:00
7:35 PM,55.4,17.6,23,29.90,10.0,East,5.8,-,N/A,,Unknown,90,2013-02-19 03:35:00
7:55 PM,53.6,17.6,24,29.89,10.0,East,6.9,-,N/A,,Unknown,80,2013-02-19 03:55:00
8:15 PM,53.6,17.6,24,29.89,10.0,East,5.8,-,N/A,,Unknown,90,2013-02-19 04:15:00
8:35 PM,50.0,19.4,30,29.90,10.0,Calm,Calm,-,N/A,,Unknown,0,2013-02-19 04:35:00
8:55 PM,46.4,23.0,40,29.90,10.0,ENE,4.6,-,N/A,,Unknown,60,2013-02-19 04:55:00
9:15 PM,46.4,19.4,34,29.90,10.0,NE,3.5,-,N/A,,Unknown,40,2013-02-19 05:15:00
9:35 PM,44.6,19.4,37,29.89,10.0,Calm,Calm,-,N/A,,Unknown,0,2013-02-19 05:35:00
9:55 PM,44.6,21.2,39,29.89,10.0,Calm,Calm,-,N/A,,Unknown,0,2013-02-19 05:55:00
10:35 PM,44.6,19.4,37,29.88,10.0,Calm,Calm,-,N/A,,Unknown,0,2013-02-19 06:35:00
11:15 PM,44.6,19.4,37,29.88,10.0,Calm,Calm,-,N/A,,Unknown,0,2013-02-19 07:15:00
11:35 PM,44.6,19.4,37,29.87,10.0,Calm,Calm,-,N/A,,Unknown,0,2013-02-19 07:35:00
11:55 PM,44.6,19.4,37,29.87,10.0,Calm,Calm,-,N/A,,Unknown,0,2013-02-19 07:55:00